GW7ERI-1 Weather Reports


Display with metric or nautical units.
time (UTC)temp
F
wind
direction
speed
MPH
gust
MPH
rain 1hr
in
rain 24hr
in
rain mn
in
humidity
%
barometer
mb
20180221030919 44 36 1.0 4.0 0.00 0.00 0.00 81 1026.0
20180221030019 43 7 0.0 3.0 0.00 0.00 0.00 81 1026.1
20180221025119 43 41 0.0 3.0 0.00 0.00 0.00 82 1026.0
20180221024219 43 40 0.0 5.0 0.00 0.00 0.00 81 1026.1
20180221023319 44 39 1.0 5.0 0.00 0.00 0.00 80 1026.0
20180221022419 44 31 0.0 2.0 0.00 0.00 0.00 79 1026.0
20180221021519 44 48 1.0 4.0 0.00 0.00 0.00 79 1026.1
20180221020619 44 37 0.0 4.0 0.00 0.00 0.00 78 1026.3
20180221015719 44 13 0.0 4.0 0.00 0.00 0.00 78 1026.1
20180221014819 44 16 0.0 4.0 0.00 0.00 0.00 78 1026.2
20180221013919 44 2 0.0 3.0 0.00 0.00 0.00 78 1026.0
20180221013019 44 349 1.0 4.0 0.00 0.00 0.00 77 1026.1
20180221012119 44 2 1.0 5.0 0.00 0.00 0.00 77 1026.0
20180221011219 44 29 1.0 6.0 0.00 0.00 0.00 77 1026.1
20180221010319 44 26 1.0 6.0 0.00 0.00 0.00 76 1026.1
20180221005419 45 23 2.0 7.0 0.00 0.00 0.00 75 1026.0
20180221004519 45 30 2.0 11.0 0.00 0.00 0.00 74 1025.9
20180221003619 45 22 3.0 11.0 0.00 0.00 0.00 74 1026.0
20180221002719 46 15 2.0 11.0 0.00 0.00 0.00 73 1025.9
20180221001819 46 9 3.0 11.0 0.00 0.00 0.00 73 1026.0
20180221000919 46 6 2.0 8.0 0.00 0.00 0.00 73 1025.8
20180221000019 46 25 1.0 7.0 0.00 0.00 0.00 73 1025.7
20180220235119 46 5 2.0 10.0 0.00 0.00 0.00 73 1025.7
20180220234218 46 359 3.0 11.0 0.00 0.00 0.00 73 1025.8
20180220233318 45 350 2.0 7.0 0.00 0.00 0.00 74 1025.7
20180220232418 45 6 2.0 8.0 0.00 0.00 0.00 74 1025.7
20180220231519 45 357 3.0 10.0 0.00 0.00 0.00 74 1025.6
20180220230618 45 352 3.0 11.0 0.00 0.00 0.00 74 1025.5
20180220225718 45 346 3.0 10.0 0.00 0.00 0.00 75 1025.4
20180220224819 45 350 3.0 11.0 0.00 0.00 0.00 75 1025.4
20180220223918 45 348 4.0 11.0 0.00 0.00 0.00 75 1025.4
20180220223018 45 352 4.0 13.0 0.00 0.00 0.00 75 1025.4
20180220222118 45 347 4.0 13.0 0.00 0.00 0.00 75 1025.5
20180220221218 45 356 3.0 10.0 0.00 0.00 0.00 75 1025.5
20180220220318 45 352 3.0 11.0 0.00 0.00 0.00 76 1025.3
20180220215418 45 346 4.0 9.0 0.00 0.00 0.00 76 1025.4
20180220214518 45 346 4.0 12.0 0.00 0.00 0.00 76 1025.4
20180220213618 45 346 4.0 11.0 0.00 0.00 0.00 76 1025.5
20180220212718 45 353 4.0 11.0 0.00 0.00 0.00 76 1025.3
20180220211818 45 354 4.0 10.0 0.00 0.00 0.00 75 1025.2
20180220210918 45 355 5.0 13.0 0.00 0.00 0.00 75 1025.3
20180220210018 45 359 4.0 15.0 0.00 0.00 0.00 75 1025.2
20180220205118 45 348 4.0 11.0 0.00 0.00 0.00 75 1025.1
20180220204218 45 349 4.0 10.0 0.00 0.00 0.00 75 1025.1
20180220203318 45 340 3.0 10.0 0.00 0.00 0.00 75 1025.2
20180220202418 45 344 4.0 11.0 0.00 0.00 0.00 75 1025.3
20180220201518 45 345 4.0 10.0 0.00 0.00 0.00 74 1025.0
20180220200618 45 346 4.0 13.0 0.00 0.00 0.00 74 1024.9
20180220195718 46 345 4.0 14.0 0.00 0.00 0.00 74 1025.0
20180220194818 46 346 4.0 13.0 0.00 0.00 0.00 74 1024.9
20180220193918 46 342 5.0 16.0 0.00 0.00 0.00 73 1024.8
20180220193018 46 354 4.0 11.0 0.00 0.00 0.00 73 1024.7
20180220192118 45 349 4.0 12.0 0.00 0.00 0.00 74 1024.8
20180220191218 45 344 3.0 11.0 0.00 0.00 0.00 74 1024.7
20180220190318 45 344 4.0 13.0 0.00 0.00 0.00 73 1024.5
20180220185418 46 347 3.0 13.0 0.00 0.00 0.00 72 1024.6
20180220184518 46 340 3.0 14.0 0.00 0.00 0.00 71 1024.6
20180220183618 46 341 2.0 9.0 0.00 0.00 0.00 71 1024.4
20180220182718 46 345 3.0 10.0 0.00 0.00 0.00 70 1024.6
20180220181818 46 347 1.0 6.0 0.00 0.00 0.00 69 1024.7
20180220180918 47 354 2.0 10.0 0.00 0.00 0.00 68 1024.5
20180220180018 47 354 2.0 10.0 0.00 0.00 0.00 67 1024.5
20180220175118 47 1 2.0 10.0 0.00 0.00 0.00 67 1024.5
20180220174218 47 352 2.0 11.0 0.00 0.00 0.00 66 1024.2
20180220173318 47 359 1.0 7.0 0.00 0.00 0.00 65 1024.1
20180220172418 48 356 2.0 11.0 0.00 0.00 0.00 65 1024.0
20180220171517 48 9 2.0 6.0 0.00 0.00 0.00 64 1023.7
20180220170618 49 27 1.0 5.0 0.00 0.00 0.00 63 1023.7
20180220165718 49 7 3.0 12.0 0.00 0.00 0.00 61 1023.7
20180220164817 50 20 2.0 8.0 0.00 0.00 0.00 60 1023.7
20180220163918 51 2 1.0 6.0 0.00 0.00 0.00 59 1023.6
20180220163018 51 3 2.0 7.0 0.00 0.00 0.00 58 1023.3
20180220162117 51 357 4.0 11.0 0.00 0.00 0.00 58 1023.3
20180220161217 51 352 4.0 10.0 0.00 0.00 0.00 57 1023.2
20180220160317 51 343 4.0 11.0 0.00 0.00 0.00 57 1023.0
20180220155417 52 349 4.0 14.0 0.00 0.00 0.00 57 1023.3
20180220154517 52 3 4.0 15.0 0.00 0.00 0.00 57 1023.2
20180220153617 52 11 4.0 13.0 0.00 0.00 0.00 57 1023.1
20180220152717 52 10 3.0 10.0 0.00 0.00 0.00 57 1023.1
20180220151817 52 12 3.0 11.0 0.00 0.00 0.00 57 1023.0
20180220150917 52 14 3.0 13.0 0.00 0.00 0.00 57 1022.8
20180220150018 52 19 2.0 11.0 0.00 0.00 0.00 56 1023.1
20180220145117 52 350 4.0 11.0 0.00 0.00 0.00 57 1023.0
20180220144217 52 353 3.0 12.0 0.00 0.00 0.00 56 1023.0
20180220143317 52 9 4.0 17.0 0.00 0.00 0.00 57 1023.1
20180220142417 52 4 4.0 12.0 0.00 0.00 0.00 57 1023.0
20180220141517 52 19 4.0 11.0 0.00 0.00 0.00 57 1023.1
20180220140618 52 7 4.0 12.0 0.00 0.00 0.00 56 1023.1
20180220135717 52 7 4.0 15.0 0.00 0.00 0.00 57 1023.0
20180220134817 52 5 4.0 10.0 0.00 0.00 0.00 58 1022.9
20180220132924 52 352 5.0 15.0 0.00 0.00 0.00 57 1023.3
20180220132024 52 8 3.0 13.0 0.00 0.00 0.00 57 1023.1
20180220131124 52 350 2.0 8.0 0.00 0.00 0.00 58 1023.1
20180220130224 51 1 3.0 9.0 0.00 0.00 0.00 59 1023.1
20180220125324 52 3 5.0 17.0 0.00 0.00 0.00 57 1023.3
20180220124424 51 355 4.0 12.0 0.00 0.00 0.00 59 1023.3
20180220123524 51 9 4.0 11.0 0.00 0.00 0.00 59 1023.4
20180220122624 52 5 4.0 13.0 0.00 0.00 0.00 58 1023.4
20180220121724 51 16 4.0 14.0 0.00 0.00 0.00 60 1023.4
20180220120824 51 357 5.0 14.0 0.00 0.00 0.00 60 1023.4
20180220115924 51 357 5.0 13.0 0.00 0.00 0.00 61 1023.4
20180220115024 51 16 5.0 15.0 0.00 0.00 0.00 61 1023.4
20180220114124 50 6 6.0 14.0 0.00 0.00 0.00 61 1023.5
20180220113224 50 356 5.0 16.0 0.00 0.00 0.00 63 1023.2
20180220112324 49 357 5.0 16.0 0.00 0.00 0.00 64 1023.5
20180220111424 49 359 5.0 13.0 0.00 0.00 0.00 65 1023.6
20180220110524 48 351 6.0 22.0 0.00 0.00 0.00 67 1023.4
20180220105624 48 1 4.0 18.0 0.00 0.00 0.00 66 1023.1
20180220104723 48 357 6.0 20.0 0.00 0.00 0.00 66 1023.1
20180220103823 49 18 4.0 12.0 0.00 0.00 0.00 67 1023.1
20180220102924 49 5 5.0 14.0 0.00 0.00 0.00 67 1023.0
20180220102023 48 6 6.0 19.0 0.00 0.00 0.00 67 1022.7
20180220101123 48 359 6.0 17.0 0.00 0.00 0.00 68 1022.6
20180220100223 48 356 4.0 14.0 0.00 0.00 0.00 71 1022.5
20180220095323 47 8 4.0 13.0 0.00 0.00 0.00 72 1022.4
20180220094423 47 2 4.0 17.0 0.00 0.00 0.00 73 1022.3
20180220093523 47 357 4.0 14.0 0.00 0.00 0.00 73 1022.5
20180220092623 47 348 5.0 15.0 0.00 0.00 0.00 73 1022.6
20180220090823 47 341 7.0 17.0 0.00 0.00 0.00 74 1022.2
20180220085923 47 341 7.0 18.0 0.00 0.00 0.00 74 1022.1
20180220085023 46 346 5.0 14.0 0.00 0.00 0.00 75 1022.2
20180220084123 46 345 5.0 14.0 0.00 0.01 0.00 75 1022.1
20180220083223 45 345 6.0 16.0 0.00 0.01 0.00 76 1022.0
20180220082323 45 341 6.0 19.0 0.00 0.01 0.00 76 1021.6
20180220081423 45 339 6.0 18.0 0.00 0.01 0.00 76 1021.3
20180220080523 45 347 6.0 18.0 0.00 0.01 0.00 77 1021.1
20180220075623 45 343 4.0 15.0 0.00 0.01 0.00 77 1020.9
20180220074723 45 335 6.0 16.0 0.00 0.01 0.00 77 1020.8
20180220073823 45 345 5.0 17.0 0.00 0.01 0.00 77 1020.5
20180220072923 45 349 7.0 22.0 0.00 0.01 0.00 76 1020.4
20180220072023 45 339 4.0 13.0 0.00 0.01 0.00 76 1020.1
20180220071123 45 342 2.0 8.0 0.00 0.01 0.00 77 1020.6
20180220070223 45 338 2.0 9.0 0.00 0.01 0.00 77 1020.6
20180220065323 45 333 1.0 6.0 0.00 0.01 0.00 79 1020.4
20180220064423 45 340 1.0 5.0 0.00 0.01 0.00 80 1020.5
20180220063523 46 337 2.0 6.0 0.00 0.01 0.00 80 1020.6
20180220062623 46 322 2.0 7.0 0.00 0.01 0.00 80 1020.5
20180220061723 46 335 3.0 11.0 0.00 0.01 0.00 81 1020.4
20180220060823 46 345 5.0 13.0 0.00 0.01 0.00 81 1020.1
20180220055923 47 353 5.0 18.0 0.00 0.01 0.00 81 1019.9
20180220055023 47 358 4.0 18.0 0.00 0.01 0.00 80 1019.9
20180220054123 47 346 4.0 13.0 0.00 0.01 0.00 81 1020.0
20180220053222 47 348 4.0 11.0 0.00 0.01 0.00 82 1020.1
20180220052323 47 14 3.0 10.0 0.00 0.01 0.00 82 1019.9
20180220051423 48 353 1.0 8.0 0.00 0.01 0.00 82 1019.9
20180220050522 48 356 1.0 7.0 0.00 0.01 0.00 82 1019.9
20180220045623 48 33 2.0 11.0 0.00 0.01 0.00 82 1019.9
20180220044722 49 357 2.0 8.0 0.00 0.01 0.00 82 1019.8
20180220043822 49 355 4.0 16.0 0.00 0.01 0.00 83 1019.7
20180220042922 49 12 2.0 9.0 0.00 0.01 0.00 86 1019.7
20180220042022 49 352 2.0 9.0 0.00 0.01 0.00 87 1019.6
20180220041122 48 347 1.0 6.0 0.00 0.01 0.00 89 1019.4
20180220040222 48 336 1.0 3.0 0.00 0.01 0.00 90 1019.6
20180220035323 48 329 1.0 5.0 0.00 0.01 0.00 90 1019.5
20180220034422 47 290 1.0 4.0 0.00 0.01 0.00 90 1019.5
20180220033522 47 288 0.0 2.0 0.00 0.01 0.00 90 1019.5
20180220032622 46 0 0.0 0.0 0.00 0.01 0.00 90 1019.4
20180220031722 47 227 0.0 1.0 0.00 0.01 0.00 90 1019.3